CAPE
184 163 2 2 0 0 0 0 0 0 0 0 0 0 0 0 0 0 0 0 0 0
40 42 3 0 0 0 0 0 0 0 0 0 0 0 0 0 0 0 0 0 0 0
71 28 12 0 0 0 0 0 0 0 0 0 0 0 0 0 0 0 0 0 0 0
232 152 61 5 0 0 0 0 0 0 0 0 0 0 0 0 0 0 0 0 0 0
404 169 37 2 1 0 0 0 0 0 0 0 0 0 0 0 0 0 0 0 0 0
5 3 3 2 1 0 0 0 0 0 0 0 0 0 0 0 0 0 0 0 0 2
1 1 1 1 0 1 0 0 0 0 0 0 0 0 0 1 0 3 0 0 3 2
0 0 0 0 0 0 0 0 0 0 0 0 0 0 0 0 3 6 0 0 1 0
0 0 0 0 0 0 0 0 0 0 0 0 0 0 0 0 0 6 0 0 0 0
0 0 0 0 0 0 0 0 0 0 0 0 0 0 0 0 0 3 0 0 0 0
0 0 0 0 0 0 0 0 0 0 1 2 1 0 0 0 1 0 0 0 0 0
0 0 0 0 0 0 2 3 4 1 2 2 0 0 0 0 0 0 0 0 0 0
0 0 0 2 3 6 6 3 0 0 0 0 1 0 0 0 0 0 0 0 0 0
1 3 2 1 0 0 0 0 0 0 0 0 0 0 0 0 0 0 1 1 0 1
CIN
-109 -102 -0 -1 -0 -0 -0 -0 -0 -0 -0 -0 -0 -0 -0 -0 -0 -0 -0 -0 -0 -0
-202 -187 -0 -0 -0 -0 -0 -0 -0 -0 -0 -0 -0 -0 -0 -0 -0 -0 -0 -0 -0 -0
-218 -210 -196 -0 -0 -0 -0 -0 -0 -0 -0 -0 -0 -0 -0 -0 -0 -0 -0 -0 -0 -0
-115 -119 -115 -45 -0 -0 -0 -0 -0 -0 -0 -0 -0 -0 -0 -0 -0 -0 -0 -0 -0 -0
-73 -99 -155 -0 -0 -0 -0 -0 -0 -0 -0 -0 -0 -0 -0 -0 -0 -0 -0 -0 -0 -0
-182 -0 -0 -0 -0 -0 -0 -0 -0 -0 -0 -0 -0 -0 -0 -0 -0 -0 -0 -0 -0 -1
-0 -0 -0 -0 -0 -0 -0 -0 -0 -0 -0 -0 -0 -0 -0 -22 -0 -0 -0 -0 -0 -2
-0 -0 -0 -0 -0 -0 -0 -0 -0 -0 -0 -0 -0 -0 -0 -0 -0 -0 -0 -0 -1 -0
-0 -0 -0 -0 -0 -0 -0 -0 -0 -0 -0 -0 -0 -0 -0 -0 -0 -0 -0 -0 -1 -1
-0 -0 -0 -0 -0 -0 -0 -0 -0 -0 -0 -0 -0 -0 -0 -0 -0 -0 -1 -0 -0 -0
-0 -0 -0 -0 -0 -0 -0 -0 -0 -0 -0 -0 -0 -0 -0 -0 -0 -0 -0 -0 -0 -0
-0 -0 -0 -0 -0 -0 -0 -0 -0 -0 -0 -0 -0 -0 -0 -0 -0 -0 -0 -0 -0 -0
-0 -0 -1 -1 -0 -0 -0 -0 -0 -0 -0 -0 -0 -0 -0 -0 -0 -0 -0 -0 -0 -0
-0 -0 -0 -0 -0 -0 -0 -0 -0 -0 -0 -0 -0 -0 -0 -0 -0 -0 -0 -2 -1 -0
Wind_Speed
10 9 9 9 8 10 9 8 7 8 7 7 9 10 14 17 18 18 19 20 21 22
8 6 7 7 8 9 8 7 8 8 8 10 10 13 14 17 17 18 20 21 21 21
3 4 5 6 7 6 6 7 8 8 10 11 13 15 14 17 17 19 19 22 21 21
6 5 6 6 6 6 7 9 10 11 12 13 15 12 14 16 19 19 23 22 22 22
6 7 6 7 8 9 10 10 10 11 12 15 13 12 15 17 19 22 25 22 22 23
8 9 10 11 11 11 11 11 10 11 12 12 12 14 16 18 22 27 25 23 26 26
13 13 13 13 13 13 12 10 11 13 13 16 14 14 17 22 29 31 30 28 29 27
14 14 14 14 14 13 12 12 13 12 13 13 16 21 22 26 31 34 33 31 29 28
16 16 16 15 14 13 14 13 13 13 15 17 19 22 26 28 33 34 33 32 30 29
18 17 16 15 15 15 15 14 15 15 18 19 19 24 28 30 33 32 31 31 31 31
18 18 17 17 17 16 15 15 15 17 18 19 24 26 28 30 29 29 31 31 31 32
18 18 17 17 17 16 17 17 19 20 20 23 26 27 25 28 31 32 32 31 32 33
18 18 18 18 18 19 20 22 22 23 24 24 26 27 29 30 32 34 34 34 34 33
20 20 20 20 21 21 22 22 24 26 27 28 29 30 31 32 35 36 38 38 38 37
Wind_Direction
200 219 237 240 261 270 265 269 277 268 277 289 309 315 322 324 328 331 331 330 330 331
198 224 240 253 271 278 272 274 272 267 277 292 303 314 317 324 324 327 328 330 330 330
265 259 261 273 272 265 263 260 271 268 279 291 301 313 315 323 324 325 329 329 327 328
296 295 300 291 283 273 273 275 279 274 281 290 303 309 317 320 328 325 325 325 325 325
306 312 302 299 304 300 295 287 275 277 285 299 302 305 318 324 325 327 327 322 321 321
310 310 310 315 313 307 300 293 286 289 291 300 304 306 315 326 328 326 321 320 318 317
317 318 318 318 315 309 305 297 296 305 308 313 310 315 322 324 324 324 319 317 314 313
327 325 324 324 325 322 316 314 312 309 316 313 306 309 318 319 320 320 319 316 313 310
335 335 333 333 332 329 326 322 321 315 319 315 311 310 315 317 319 320 318 318 316 314
339 340 341 340 338 334 332 332 329 323 320 312 310 314 314 314 317 318 319 318 318 316
350 349 348 347 344 342 340 335 330 326 321 316 315 316 317 318 320 319 319 318 318 316
356 356 355 352 351 349 346 341 334 330 327 324 322 322 323 324 323 321 320 320 319 317
4 1 357 353 350 347 343 340 337 333 331 329 328 326 325 326 325 322 321 320 319 318
359 357 354 351 348 346 344 342 340 336 334 331 331 330 330 330 327 325 322 320 318 317